x

9444090 - Port Angeles, Wa (ptaw1) Weather Station

8:36pm - Thu 21st Mar 2019 All times are PDT. -7 hours from GMT.

  • Wind
    6mph, 8mph gusts
  • Sea Temp 47°f
  • Air Temp 51°f
  • Sea Pressure 1016.7mb
  • 9444090 - Port Angeles, Wa
  • 9444090 - Port Angeles, Wa

More Historic Weather Station data

Upgrade to MSW Pro to gain access to the past 30 days of data for over 8000 Wavebouys and Weather Stations around the globe.

Join

Comparision Forecast

View Surf forecast
   
Thu 03/21 8:36pm 6 8 mph 1016.7mb 47f 51f
8:30pm 5 9 mph 1016.7mb 47f 51f
8:24pm 6 11 mph 1016.7mb 47f 51f
8:18pm 6 9 mph 1016.6mb 47f 51f
8:12pm 7 10 mph 1016.7mb 47f 51f
8:06pm 6 11 mph 1016.7mb 47f 51f
8:00pm 6 9 mph 1016.8mb 47f 52f
7:36pm 8 13 mph 1016.8mb 47f 52f
7:30pm 6 13 mph 1016.9mb 47f 52f
7:24pm 6 10 mph 1016.9mb 47f 52f
7:18pm 6 9 mph 1016.9mb 47f 52f
7:12pm 8 14 mph 1016.9mb 47f 52f
7:06pm 6 10 mph 1017mb 47f 52f
7:00pm 6 9 mph 1017mb 47f 52f
6:36pm 7 11 mph 1017mb 47f 52f
6:30pm 10 15 mph 1017.1mb 47f 52f
6:24pm 9 15 mph 1017.1mb 47f 52f
6:18pm 9 13 mph 1017.1mb 47f 53f
6:12pm 9 18 mph 1017mb 47f 52f
6:06pm 15 18 mph 1017mb 47f 52f
6:00pm 14 21 mph 1017mb 47f 52f
5:36pm 15 18 mph 1017.1mb 47f 52f
5:30pm 11 17 mph 1017mb 47f 53f
5:24pm 14 18 mph 1017.1mb 47f 53f
5:18pm 15 21 mph 1017mb 47f 53f
5:12pm 15 20 mph 1017.1mb 47f 53f
5:06pm 14 18 mph 1017mb 47f 52f
5:00pm 13 18 mph 1017.1mb 47f 52f
4:36pm 16 21 mph 1017mb 47f 52f
4:30pm 15 20 mph 1017mb 47f 52f
4:24pm 14 22 mph 1017mb 47f 52f
4:18pm 15 22 mph 1017mb 47f 51f
4:12pm 17 21 mph 1016.9mb 47f 51f
4:06pm 16 20 mph 1017mb 47f 51f
4:00pm 18 21 mph 1017mb 47f 51f
3:36pm 16 21 mph 1017.2mb 47f 51f
3:30pm 16 21 mph 1017.2mb 47f 51f
3:24pm 14 17 mph 1017.3mb 47f 51f
3:18pm 15 21 mph 1017.3mb 47f 51f
3:12pm 16 21 mph 1017.4mb 47f 50f
3:06pm 17 20 mph 1017.5mb 47f 51f
3:00pm 15 20 mph 1017.4mb 47f 50f
2:36pm 15 18 mph 1017.4mb 47f 49f
2:30pm 15 18 mph 1017.5mb 47f 49f
2:24pm 14 21 mph 1017.5mb 47f 49f
2:18pm 14 20 mph 1017.6mb 47f 49f
2:12pm 13 17 mph 1017.6mb 47f 49f
2:06pm 15 18 mph 1017.7mb 47f 49f
2:00pm 14 17 mph 1017.7mb 47f 49f
1:36pm 14 18 mph 1017.9mb 47f 49f
1:30pm 13 16 mph 1018mb 47f 49f
1:24pm 13 17 mph 1018mb 47f 49f
1:18pm 14 17 mph 1018mb 47f 49f
1:12pm 14 18 mph 1018mb 47f 49f
1:06pm 13 17 mph 1018.1mb 47f 49f
1:00pm 14 18 mph 1018.2mb 47f 49f
12:36pm 15 18 mph 1018.2mb 47f 49f
12:30pm 15 20 mph 1018.3mb 47f 49f
12:24pm 16 20 mph 1018.2mb 47f 49f
12:18pm 15 21 mph 1018.2mb 47f 49f
12:12pm 15 18 mph 1018.1mb 47f 49f
12:06pm 15 18 mph 1018.2mb 47f 49f
12:00pm 15 20 mph 1018.2mb 47f 49f
11:36am 14 21 mph 1018.1mb 47f 49f
11:30am 15 21 mph 1018.1mb 47f 49f
11:24am 15 21 mph 1018.1mb 47f 49f
11:18am 15 22 mph 1018.2mb 47f 49f
11:12am 15 21 mph 1018.2mb 47f 49f
11:06am 15 21 mph 1018.2mb 47f 49f
11:00am 15 21 mph 1018.2mb 47f 49f
10:36am 13 17 mph 1017.9mb 47f 50f
10:30am 14 16 mph 1017.9mb 47f 50f
10:24am 13 17 mph 1017.8mb 47f 49f
10:18am 11 16 mph 1017.8mb 47f 49f
10:12am 10 14 mph 1017.8mb 47f 49f
10:06am 10 17 mph 1017.8mb 47f 49f
10:00am 13 18 mph 1017.8mb 47f 50f
9:36am 10 14 mph 1017.8mb 47f 49f
9:30am 11 18 mph 1017.7mb 47f 49f
9:24am 9 15 mph 1017.6mb 47f 49f
9:18am 10 15 mph 1017.5mb 47f 49f
9:12am 10 15 mph 1017.5mb 47f 49f
9:06am 10 16 mph 1017.5mb 47f 49f
9:00am 8 11 mph 1017.5mb 47f 49f
8:36am 9 15 mph 1017.2mb 47f 48f
8:30am 9 13 mph 1017.3mb 47f 48f
8:24am 8 13 mph 1017.2mb 47f 48f
8:18am 7 9 mph 1017.2mb 47f 48f
8:12am 6 10 mph 1017.2mb 47f 48f
8:06am 6 8 mph 1017.2mb 47f 48f
8:00am 3 8 mph 1017.2mb 47f 48f
7:36am 5 10 mph 1017mb 47f 48f
7:30am 9 13 mph 1017mb 47f 48f
7:24am 9 14 mph 1017mb 47f 48f
7:18am 9 15 mph 1016.9mb 47f 48f
7:12am 8 13 mph 1016.9mb 47f 49f
7:06am 10 16 mph 1016.9mb 47f 49f
7:00am 11 17 mph 1016.9mb 47f 49f
6:36am 6 11 mph 1016.6mb 47f 46f
6:30am 5 10 mph 1016.5mb 47f 46f
6:24am 6 11 mph 1016.5mb 47f 47f
6:18am 5 9 mph 1016.4mb 47f 47f
6:12am 5 7 mph 1016.5mb 47f 46f
6:06am 6 8 mph 1016.5mb 47f 45f
6:00am 5 6 mph 1016.4mb 47f 45f
5:36am 6 13 mph 1016.3mb 47f 48f
5:30am 7 15 mph 1016.3mb 47f 48f
5:24am 9 13 mph 1016.1mb 47f 49f
5:18am 9 15 mph 1016.1mb 47f 49f
5:12am 9 15 mph 1016mb 47f 49f
5:06am 3 5 mph 1016mb 47f 48f
5:00am 3 8 mph 1015.9mb 47f 49f
4:36am 2 3 mph 1015.5mb 47f 48f
4:30am 2 8 mph 1015.5mb 47f 47f
4:24am 7 8 mph 1015.4mb 47f 48f
4:18am 7 11 mph 1015.4mb 47f 48f
4:12am 10 13 mph 1015.2mb 47f 47f
4:06am 9 11 mph 1015.2mb 47f 47f
4:00am 7 8 mph 1015.2mb 47f 48f
3:36am 10 13 mph 1015.1mb 47f 47f
3:30am 8 10 mph 1015.2mb 47f 47f
3:24am 8 9 mph 1015.2mb 47f 47f
3:18am 8 9 mph 1015.2mb 47f 47f
3:12am 6 9 mph 1015.2mb 47f 48f
3:06am 8 10 mph 1015.2mb 47f 47f
3:00am 8 10 mph 1015.2mb 47f 48f
2:36am 9 11 mph 1015.2mb 47f 48f
2:30am 9 11 mph 1015.2mb 47f 49f
2:24am 10 13 mph 1015.1mb 47f 49f
2:18am 10 13 mph 1015.1mb 47f 49f
2:12am 10 11 mph 1015.1mb 47f 49f
2:06am 10 11 mph 1015.1mb 47f 49f
2:00am 10 11 mph 1015mb 47f 49f
1:36am 6 10 mph 1014.7mb 47f 48f
1:30am 9 11 mph 1014.6mb 47f 48f
1:24am 9 10 mph 1014.6mb 47f 49f
1:18am 9 11 mph 1014.5mb 47f 48f
1:12am 8 9 mph 1014.4mb 47f 47f
1:06am 3 5 mph 1014.4mb 47f 48f
1:00am 6 9 mph 1014.5mb 47f 49f
12:36am 6 7 mph 1014.2mb 47f 47f
12:30am 7 7 mph 1014.1mb 47f 47f
12:24am 5 8 mph 1014.1mb 47f 47f
12:18am 8 9 mph 1014mb 47f 47f
12:12am 6 8 mph 1013.9mb 47f 47f
12:06am 6 7 mph 1013.8mb 47f 47f
12:00am 6 9 mph 1013.8mb 47f 48f
Wed 03/20 11:36pm 5 6 mph 1013.8mb 47f 47f
11:30pm 5 5 mph 1013.7mb 47f 47f
11:24pm 5 6 mph 1013.6mb 47f 47f
11:18pm 3 5 mph 1013.5mb 47f 48f
11:12pm 2 5 mph 1013.3mb 47f 48f
11:06pm 3 5 mph 1013.3mb 47f 48f
11:00pm 3 5 mph 1013.3mb 47f 49f
10:36pm 8 10 mph 1012.7mb 47f 53f
10:30pm 8 10 mph 1012.8mb 47f 53f
10:24pm 3 6 mph 1012.8mb 47f 51f
10:18pm 2 3 mph 1012.7mb 47f 50f
10:12pm 2 5 mph 1012.6mb 47f 51f
10:06pm 2 6 mph 1012.5mb 47f 53f
10:00pm 3 6 mph 1012.3mb 47f 52f
9:36pm 5 8 mph 1011.6mb 47f 53f
9:30pm 3 5 mph 1011.5mb 47f 53f
9:24pm 2 5 mph 1011.4mb 47f 54f
9:18pm 2 5 mph 1011.2mb 47f 56f
9:12pm 5 8 mph 1011.2mb 47f 55f
9:06pm 2 3 mph 1011.2mb 47f 53f
9:00pm 2 7 mph 1011.2mb 47f 54f
8:36pm 2 5 mph 1010.8mb 47f 54f
8:30pm 2 5 mph 1010.7mb 47f 55f
8:24pm 5 6 mph 1010.6mb 47f 55f
8:18pm 3 5 mph 1010.5mb 47f 55f
8:12pm 1 3 mph 1010.4mb 47f 55f
8:06pm 1 2 mph 1010.3mb 47f 56f
8:00pm  -  2 mph 1010.3mb 47f 56f
7:36pm 3 6 mph 1010.2mb 47f 59f
7:30pm  -  3 mph 1010.2mb 47f 59f
7:24pm 3 6 mph 1010.1mb 47f 59f
7:18pm 5 6 mph 1010.2mb 47f 60f
7:12pm 6 8 mph 1010.1mb 47f 60f
7:06pm 6 7 mph 1010.1mb 47f 60f
7:00pm 6 8 mph 1010.2mb 47f 61f
6:36pm 6 6 mph 1010.3mb 47f 60f
6:30pm 3 6 mph 1010.3mb 47f 60f
6:24pm 3 6 mph 1010.2mb 47f 60f
6:18pm 3 6 mph 1010.3mb 47f 59f
6:12pm 5 6 mph 1010.3mb 47f 58f
6:06pm 6 8 mph 1010.3mb 47f 57f
6:00pm 8 9 mph 1010.2mb 47f 58f
5:36pm 9 9 mph 1010.4mb 47f 59f
5:30pm 8 9 mph 1010.4mb 47f 60f
5:24pm 7 8 mph 1010.4mb 47f 61f
5:18pm 7 8 mph 1010.4mb 47f 61f
5:12pm 7 8 mph 1010.5mb 47f 62f
5:06pm 7 8 mph 1010.5mb 47f 60f
5:00pm 7 8 mph 1010.5mb 47f 60f
4:36pm 5 6 mph 1010.6mb 47f 58f
4:30pm 5 6 mph 1010.6mb 47f 61f
4:24pm 6 7 mph 1010.7mb 47f 60f
4:18pm 6 6 mph 1010.8mb 47f 62f
4:12pm 5 7 mph 1010.8mb 47f 62f
4:06pm 6 10 mph 1010.8mb 47f 60f
4:00pm 7 10 mph 1010.8mb 47f 61f
3:36pm 7 8 mph 1011mb 47f 61f
3:30pm 6 7 mph 1011.1mb 47f 60f
3:24pm 8 9 mph 1011.2mb 47f 60f
3:18pm 8 10 mph 1011.1mb 47f 61f
3:12pm 8 9 mph 1011.2mb 47f 61f
3:06pm 6 6 mph 1011.4mb 47f 62f
3:00pm 6 7 mph 1011.5mb 47f 62f
2:36pm 7 7 mph 1011.7mb 47f 59f
2:30pm 6 7 mph 1011.7mb 47f 58f
2:24pm 5 6 mph 1011.7mb 47f 60f
2:18pm 5 6 mph 1011.8mb 47f 59f
2:12pm 6 8 mph 1011.8mb 47f 61f
2:06pm 3 6 mph 1011.9mb 47f 60f
2:00pm 6 7 mph 1012.1mb 47f 59f
1:36pm 5 6 mph 1012.5mb 47f 59f
1:30pm 6 7 mph 1012.6mb 47f 58f
1:24pm 6 7 mph 1012.6mb 47f 58f
1:18pm 3 5 mph 1012.8mb 47f 57f
1:12pm 5 5 mph 1012.8mb 47f 58f
1:06pm 3 5 mph 1012.9mb 47f 57f
1:00pm 5 6 mph 1012.9mb 47f 57f
12:36pm 5 6 mph 1013.3mb 47f 57f
12:30pm 6 7 mph 1013.4mb 47f 56f
12:24pm 6 7 mph 1013.5mb 47f 57f
12:18pm 6 6 mph 1013.5mb 47f 57f
12:12pm 6 6 mph 1013.6mb 47f 56f
12:06pm 6 7 mph 1013.6mb 47f 56f
12:00pm 6 7 mph 1013.7mb 47f 55f
11:36am 7 8 mph 1013.9mb 47f 55f
11:30am 7 8 mph 1013.9mb 47f 55f
11:24am 6 7 mph - - -
11:18am 6 7 mph 1014mb 47f 56f
11:12am 7 8 mph 1014mb 47f 56f
11:06am 7 8 mph 1014.1mb 47f 55f
11:00am 7 8 mph 1014.1mb 47f 55f
10:36am 5 6 mph 1014.2mb 47f 53f
10:30am 5 5 mph 1014.2mb 47f 53f
10:24am 5 6 mph 1014.2mb 47f 52f
10:18am 6 7 mph 1014.1mb 47f 53f
10:12am 6 6 mph 1014.1mb 47f 53f
10:06am 5 7 mph 1014.2mb 47f 51f
10:00am 7 8 mph 1014.2mb 47f 53f
9:36am 3 5 mph 1014.2mb 47f 53f
9:30am 1 3 mph 1014.3mb 47f 52f
9:24am 2 3 mph 1014.3mb 47f 53f
9:18am 3 3 mph 1014.3mb 47f 51f
9:12am 2 5 mph 1014.4mb 47f 51f
9:06am 3 5 mph 1014.4mb 47f 50f
9:00am 2 3 mph 1014.4mb 47f 49f
8:36am 5 6 mph 1014.3mb 47f 47f
8:30am 5 6 mph 1014.3mb 47f 47f
8:24am 6 7 mph 1014.3mb 47f 46f
8:18am 6 6 mph 1014.3mb 47f 45f
8:12am 5 7 mph 1014.2mb 47f 45f
8:06am 6 7 mph 1014.2mb 47f 45f
8:00am 6 8 mph 1014.2mb 47f 43f
7:36am 6 7 mph 1014.3mb 47f 41f
7:30am 5 6 mph 1014.2mb 47f 40f
7:24am 6 7 mph 1014.3mb 47f 40f
7:18am 6 7 mph 1014.2mb 47f 40f
7:12am 5 6 mph 1014.2mb 47f 39f
7:06am 3 5 mph 1014.2mb 47f 40f
7:00am 2 6 mph 1014.1mb 47f 40f
6:36am 6 8 mph 1014.2mb 47f 40f
6:30am 8 9 mph 1014.2mb 47f 40f
6:24am 6 7 mph 1014.3mb 47f 40f
6:18am 6 10 mph 1014.2mb 47f 41f
6:12am 8 10 mph 1014.2mb 47f 41f
6:06am 6 8 mph 1014.2mb 47f 41f
6:00am 7 10 mph 1014.3mb 47f 41f
5:36am 9 9 mph 1014.3mb 47f 41f
5:30am 8 9 mph 1014.2mb 47f 40f
5:24am 6 9 mph 1014.2mb 47f 41f
5:18am 9 9 mph 1014.2mb 47f 42f
5:12am 9 10 mph 1014.2mb 47f 41f
5:06am 7 9 mph 1014.1mb 47f 41f
5:00am 9 10 mph 1014.1mb 47f 41f
4:36am 7 9 mph 1013.9mb 47f 41f
4:30am 8 10 mph 1013.9mb 47f 41f
4:24am 8 10 mph 1013.9mb 47f 41f
4:18am 6 8 mph 1013.8mb 47f 40f
4:12am 8 9 mph 1013.8mb 47f 41f
4:06am 7 9 mph 1013.8mb 47f 41f
4:00am 7 8 mph 1013.8mb 47f 41f
3:36am 8 9 mph 1013.8mb 47f 42f
3:30am 7 8 mph 1013.8mb 47f 43f
3:24am 6 9 mph 1013.7mb 47f 42f
3:18am 9 10 mph 1013.7mb 47f 42f
3:12am 6 8 mph 1013.6mb 47f 43f
3:06am 7 8 mph 1013.6mb 47f 43f
3:00am 7 9 mph 1013.6mb 47f 43f
2:36am 7 9 mph 1013.7mb 47f 42f
2:30am 7 8 mph 1013.7mb 47f 41f
2:24am 7 8 mph 1013.6mb 47f 41f
2:18am 5 8 mph 1013.6mb 47f 42f
2:12am 7 8 mph 1013.5mb 47f 42f
2:06am 8 9 mph 1013.5mb 47f 42f
2:00am 7 9 mph 1013.4mb 47f 42f
1:36am 5 8 mph 1013.3mb 47f 42f
1:30am 7 9 mph 1013.2mb 47f 42f
1:24am 8 9 mph 1013.2mb 47f 43f
1:18am 8 9 mph 1013.2mb 47f 43f
1:12am 9 11 mph 1013.2mb 47f 43f
1:06am 8 10 mph 1013.3mb 47f 43f
1:00am 7 8 mph 1013.3mb 47f 44f
12:36am 7 8 mph 1013.4mb 47f 45f
12:30am 6 7 mph 1013.4mb 47f 44f
12:24am 7 8 mph 1013.4mb 47f 45f
12:18am 6 7 mph 1013.4mb 47f 45f
12:12am 7 8 mph 1013.5mb 47f 44f
12:06am 7 9 mph 1013.5mb 47f 44f
12:00am 8 11 mph 1013.5mb 47f 45f
Tue 03/19 11:36pm 6 7 mph 1013.6mb 47f 45f
11:30pm 8 9 mph 1013.6mb 47f 45f
11:24pm 6 7 mph 1013.6mb 47f 46f
11:18pm 5 8 mph 1013.6mb 47f 45f
11:12pm 5 8 mph 1013.7mb 47f 46f
11:06pm 6 7 mph 1013.7mb 47f 46f
11:00pm 6 7 mph 1013.6mb 47f 46f
10:36pm 6 7 mph 1013.7mb 47f 46f
10:30pm 6 8 mph 1013.7mb 47f 47f
10:24pm 7 8 mph 1013.7mb 47f 47f
10:18pm 5 7 mph 1013.8mb 47f 47f
10:12pm 6 7 mph 1013.7mb 47f 46f
10:06pm 6 8 mph 1013.7mb 47f 47f
10:00pm 5 7 mph 1013.7mb 47f 46f
9:36pm 3 8 mph 1013.8mb 47f 48f
9:30pm 6 6 mph 1013.7mb 47f 48f
9:24pm 3 6 mph 1013.7mb 47f 48f
9:18pm 5 7 mph 1013.7mb 47f 49f
9:12pm 5 6 mph 1013.7mb 47f 49f
9:06pm 6 8 mph 1013.7mb 47f 49f
9:00pm 8 9 mph 1013.6mb 47f 49f
8:36pm 8 9 mph 1013.7mb 48f 51f
8:30pm 8 9 mph 1013.8mb 48f 51f
8:24pm 7 9 mph 1013.8mb 48f 52f
8:18pm 8 9 mph 1013.8mb 48f 52f
8:12pm 7 8 mph 1013.8mb 48f 52f
8:06pm 5 6 mph 1013.7mb 48f 52f
8:00pm 5 7 mph 1013.7mb 48f 52f
7:36pm 2 3 mph 1013.7mb 47f 56f
7:30pm 2 5 mph 1013.6mb 47f 55f
7:24pm 1 2 mph 1013.6mb 47f 56f
7:18pm 1 3 mph 1013.6mb 47f 56f
7:12pm 3 5 mph 1013.6mb 47f 57f
7:06pm 3 5 mph 1013.5mb 47f 57f
7:00pm 1 2 mph 1013.5mb 47f 58f
6:36pm  -  3 mph 1013.6mb 47f 62f
6:30pm 2 2 mph 1013.6mb 47f 61f
6:24pm  -  2 mph 1013.6mb 47f 60f
6:18pm 2 2 mph 1013.6mb 47f 61f
6:12pm 2 3 mph 1013.7mb 47f 61f
6:06pm 2 3 mph 1013.7mb 47f 61f
6:00pm 2 3 mph 1013.8mb 47f 63f
5:36pm 2 3 mph 1014mb 47f 61f
5:30pm 2 5 mph 1014.1mb 47f 60f
5:24pm 3 5 mph 1014.1mb 47f 61f
5:18pm 2 5 mph 1014.2mb 47f 61f
5:12pm 5 6 mph 1014.2mb 47f 61f
5:06pm 3 5 mph 1014.3mb 47f 61f
5:00pm 2 3 mph 1014.4mb 47f 61f
4:36pm 2 3 mph 1014.7mb 47f 62f
4:30pm 1 3 mph 1014.7mb 47f 61f
4:24pm 1 5 mph 1014.8mb 47f 62f
4:18pm 3 5 mph 1014.9mb 47f 64f
4:12pm  -  3 mph 1015mb 47f 61f
4:06pm 2 3 mph 1015mb 47f 59f
4:00pm 1 2 mph 1015.1mb 47f 59f
3:36pm 2 3 mph 1015.3mb 47f 58f
3:30pm 2 3 mph 1015.4mb 47f 58f
3:24pm 2 3 mph 1015.4mb 47f 59f
3:18pm 1 2 mph 1015.5mb 47f 58f
3:12pm 2 3 mph 1015.5mb 47f 57f
3:06pm  -  2 mph 1015.6mb 47f 57f
3:00pm 2 5 mph 1015.6mb 47f 56f
2:36pm 3 5 mph 1015.9mb 47f 56f
2:30pm 2 3 mph 1016mb 47f 56f
2:24pm 1 5 mph 1016mb 47f 56f
2:18pm 1 3 mph 1016.1mb 47f 56f
2:12pm 1 3 mph 1016.3mb 47f 56f
2:06pm 2 3 mph 1016.3mb 47f 55f
2:00pm 2 5 mph 1016.4mb 47f 55f
1:36pm 3 5 mph 1016.7mb 47f 54f
1:30pm 3 5 mph 1016.8mb 47f 55f
1:24pm 2 3 mph 1016.9mb 47f 54f
1:18pm 2 3 mph 1016.9mb 47f 55f
1:12pm 3 5 mph 1016.9mb 47f 54f
1:06pm 3 5 mph 1016.9mb 47f 54f
1:00pm 2 5 mph 1017mb 47f 54f
12:36pm 2 5 mph 1017mb 47f 53f
12:30pm 2 3 mph 1017.1mb 47f 53f
12:24pm 2 3 mph 1017.1mb 47f 53f
12:18pm 2 3 mph 1017.1mb 47f 52f
12:12pm 2 3 mph 1017.2mb 47f 52f
12:06pm 1 2 mph 1017.3mb 47f 53f
12:00pm 2 3 mph 1017.3mb 47f 52f
11:36am 1 2 mph 1017.5mb 47f 52f
11:30am  -  2 mph 1017.5mb 47f 57f
11:24am 1 3 mph 1017.6mb 47f 57f
11:18am 2 5 mph 1017.6mb 47f 56f
11:12am 1 3 mph 1017.6mb 47f 55f
11:06am 1 2 mph 1017.6mb 47f 52f
11:00am 1 2 mph 1017.7mb 47f 51f
10:36am 5 6 mph 1017.8mb 47f 54f
10:30am 3 5 mph 1017.9mb 47f 52f
10:24am 2 5 mph 1018mb 47f 52f
10:18am 2 6 mph 1018mb 47f 53f
10:12am 5 7 mph 1017.9mb 47f 52f
10:06am 5 7 mph 1018mb 47f 52f
10:00am 3 5 mph 1018.2mb 47f 50f
9:36am 2 5 mph 1018.1mb 47f 49f
9:30am 2 5 mph 1018.1mb 47f 51f
9:24am 5 6 mph 1018mb 47f 50f
9:18am 3 5 mph 1018mb 47f 49f
9:12am 3 5 mph 1017.9mb 47f 48f
9:06am 3 5 mph 1017.9mb 47f 48f
9:00am 3 3 mph 1017.9mb 47f 48f
8:36am 2 6 mph 1017.8mb 47f 47f
8:30am 3 5 mph 1017.9mb 47f 46f
8:24am 3 5 mph 1017.8mb 47f 46f
8:18am 2 5 mph 1017.8mb 47f 46f
8:12am 3 6 mph 1017.8mb 47f 43f
8:06am 3 6 mph 1017.9mb 47f 42f
8:00am 3 3 mph 1017.9mb 47f 41f
7:36am 7 8 mph 1018mb 47f 39f
7:30am 5 7 mph 1018.1mb 47f 39f
7:24am 6 7 mph 1018.1mb 47f 38f
7:18am 3 6 mph 1018.1mb 47f 38f
7:12am 5 7 mph 1018.1mb 47f 38f
7:06am 7 8 mph 1018.1mb 47f 38f
7:00am 6 7 mph 1018.1mb 47f 38f
6:36am 7 9 mph 1018.1mb 47f 39f
6:30am 6 8 mph 1018.1mb 47f 39f
6:24am 7 8 mph 1018.1mb 47f 39f
6:18am 6 8 mph 1018.1mb 47f 39f
6:12am 7 9 mph 1018.1mb 47f 40f
6:06am 10 11 mph 1018.2mb 47f 39f
6:00am 6 8 mph 1018.1mb 47f 38f
5:36am 6 8 mph 1018.2mb 47f 38f
5:30am 6 10 mph 1018.2mb 47f 39f
5:24am 7 10 mph 1018.1mb 47f 38f
5:18am 6 8 mph 1018.1mb 47f 38f
5:12am 8 9 mph 1018.2mb 47f 38f
5:06am 6 8 mph 1018.1mb 47f 38f
5:00am 5 6 mph 1018.2mb 47f 38f
4:36am 6 8 mph 1018.2mb 47f 39f
4:30am 7 8 mph 1018.2mb 47f 39f
4:24am 6 7 mph 1018.2mb 47f 40f
4:18am 7 9 mph 1018.3mb 47f 40f
4:12am 7 9 mph 1018.3mb 47f 39f
4:06am 6 9 mph 1018.4mb 47f 39f
4:00am 8 10 mph 1018.4mb 47f 39f
3:36am 3 5 mph 1018.6mb 47f 39f
3:30am 6 9 mph 1018.6mb 47f 40f
3:24am 8 9 mph 1018.6mb 47f 40f
3:18am 8 10 mph 1018.6mb 47f 40f
3:12am 8 9 mph 1018.7mb 47f 40f
3:06am 9 11 mph 1018.7mb 47f 40f
3:00am 7 11 mph 1018.7mb 47f 40f
2:36am 8 10 mph 1018.8mb 47f 40f
2:30am 9 10 mph 1018.8mb 47f 40f
2:24am 8 11 mph 1018.8mb 47f 40f
2:18am 8 11 mph 1018.8mb 47f 40f
2:12am 6 7 mph 1018.8mb 47f 41f
2:06am 7 9 mph 1018.8mb 47f 41f
2:00am 9 10 mph 1018.7mb 47f 41f
1:36am 8 10 mph 1018.8mb 47f 41f
1:30am 9 11 mph 1018.9mb 47f 42f
1:24am 6 8 mph 1018.8mb 47f 41f
1:18am 6 8 mph 1018.9mb 47f 41f
1:12am 6 7 mph 1018.9mb 47f 42f
1:06am 3 6 mph 1018.8mb 47f 42f
1:00am 5 7 mph 1018.9mb 47f 42f
12:36am 5 6 mph 1018.8mb 47f 42f
12:30am 6 7 mph 1018.8mb 47f 43f
12:24am 6 10 mph 1018.7mb 47f 43f
12:18am 6 9 mph 1018.7mb 47f 42f
12:12am 6 9 mph 1018.6mb 47f 42f
12:06am 5 8 mph 1018.5mb 47f 43f
12:00am 6 7 mph 1018.7mb 47f 43f
Mon 03/18 11:36pm 8 11 mph 1018.7mb 47f 42f
11:30pm 5 6 mph 1018.6mb 47f 44f
11:24pm 5 6 mph 1018.7mb 47f 44f
11:18pm 6 9 mph 1018.8mb 47f 44f
11:12pm 6 8 mph 1018.9mb 47f 44f
11:06pm 5 9 mph 1018.9mb 47f 44f
11:00pm 7 9 mph 1018.9mb 47f 45f
10:36pm 6 8 mph 1019.1mb 47f 46f
10:30pm 3 7 mph 1019.1mb 47f 46f
10:24pm 8 10 mph 1019.1mb 47f 46f
10:18pm 6 8 mph 1019.1mb 47f 45f
10:12pm 2 6 mph 1019mb 47f 47f
10:06pm 3 9 mph 1019mb 47f 47f
10:00pm 8 10 mph 1019mb 47f 47f
9:36pm 7 10 mph 1019mb 47f 48f
9:30pm 7 8 mph 1019mb 47f 48f
9:24pm 5 8 mph 1018.9mb 47f 47f
9:18pm 7 9 mph 1018.9mb 47f 48f
9:12pm 7 10 mph 1018.9mb 47f 48f
9:06pm 7 9 mph 1018.8mb 47f 48f
9:00pm 6 9 mph 1018.9mb 47f 47f
8:36pm 7 8 mph 1018.8mb 47f 48f
8:30pm 5 6 mph 1018.8mb 47f 48f
8:24pm 3 5 mph 1018.8mb 47f 49f
8:18pm 5 5 mph 1018.8mb 47f 49f
8:12pm  -  2 mph 1018.7mb 47f 51f
8:06pm  -  2 mph 1018.7mb 47f 51f
8:00pm 1 3 mph 1018.7mb 47f 50f
7:36pm 2 3 mph 1018.6mb 47f 53f
7:30pm 3 5 mph 1018.6mb 47f 53f
7:24pm 2 5 mph 1018.5mb 47f 54f
7:18pm 3 6 mph 1018.6mb 47f 53f
7:12pm 3 6 mph 1018.6mb 47f 54f
7:06pm 5 6 mph 1018.6mb 47f 54f
7:00pm 6 7 mph 1018.6mb 47f 54f
6:36pm 7 11 mph 1018.9mb 47f 55f
6:30pm 6 7 mph 1018.9mb 47f 54f
6:24pm 6 7 mph 1019mb 47f 54f
6:18pm 7 9 mph 1019mb 47f 54f
6:12pm 8 11 mph 1019mb 47f 56f
6:06pm 9 11 mph 1019.1mb 47f 55f
6:00pm 5 7 mph 1019.1mb 47f 57f
5:36pm 2 6 mph 1019.4mb 47f 58f
5:30pm 3 6 mph 1019.6mb 47f 58f
5:24pm 3 7 mph 1019.6mb 47f 58f
5:18pm 5 7 mph 1019.7mb 47f 58f
5:12pm 6 8 mph 1019.8mb 47f 56f
5:06pm 6 7 mph 1020mb 47f 56f
5:00pm 6 6 mph 1020mb 47f 55f
4:36pm 6 7 mph 1020.3mb 47f 57f
4:30pm 5 7 mph 1020.4mb 47f 56f
4:24pm 6 7 mph 1020.5mb 47f 56f
4:18pm 5 6 mph 1020.6mb 47f 56f
4:12pm 6 7 mph 1020.6mb 47f 56f
4:06pm 7 7 mph 1020.7mb 47f 55f
4:00pm 7 8 mph 1020.7mb 47f 55f
3:36pm 5 6 mph 1021.1mb 48f 55f
3:30pm 5 6 mph 1021.2mb 48f 55f
3:24pm 5 6 mph 1021.2mb 48f 55f
3:18pm 5 6 mph 1021.2mb 48f 55f
3:12pm 3 5 mph 1021.3mb 48f 55f
3:06pm 3 3 mph 1021.4mb 48f 54f
3:00pm 2 5 mph 1021.4mb 48f 55f
2:36pm 2 3 mph 1021.7mb 47f 55f
2:30pm 2 2 mph 1021.8mb 47f 55f
2:24pm  -  2 mph 1021.9mb 47f 56f
2:18pm 1 2 mph 1022mb 47f 56f
2:12pm 2 5 mph 1022.1mb 47f 56f
2:06pm 3 5 mph 1022.1mb 47f 56f
2:00pm 3 5 mph 1022.2mb 47f 55f
1:36pm 2 5 mph 1022.6mb 47f 54f
1:30pm 5 5 mph 1022.7mb 47f 55f
1:24pm 5 5 mph 1022.8mb 47f 54f
1:18pm 5 6 mph 1022.9mb 47f 54f
1:12pm 6 6 mph 1023mb 47f 54f
1:06pm 6 8 mph 1023.1mb 47f 53f
1:00pm 5 7 mph 1023.2mb 47f 53f
12:36pm 5 6 mph 1023.2mb 47f 53f
12:30pm 5 6 mph 1023.2mb 47f 53f
12:24pm 2 3 mph 1023.3mb 47f 53f
12:18pm 2 6 mph 1023.3mb 47f 52f
12:12pm 3 6 mph 1023.4mb 47f 52f
12:06pm 3 6 mph 1023.5mb 47f 53f
12:00pm 2 3 mph 1023.6mb 47f 52f
11:36am 6 7 mph 1023.6mb 47f 53f
11:30am 6 7 mph 1023.6mb 47f 53f
11:24am 6 7 mph 1023.7mb 47f 53f
11:18am 6 8 mph 1023.7mb 47f 52f
11:12am 6 7 mph 1023.8mb 47f 53f
11:06am 6 7 mph 1023.8mb 47f 53f
11:00am 6 7 mph 1024mb 47f 53f
10:36am 2 5 mph 1024mb 47f 52f
10:30am 3 5 mph 1024mb 47f 51f
10:24am 2 5 mph 1023.9mb 47f 52f
10:18am 2 5 mph 1024mb 47f 52f
10:12am 3 5 mph 1024mb 47f 53f
10:06am 3 6 mph 1024mb 47f 52f
10:00am 3 6 mph 1023.9mb 47f 52f
9:36am 5 6 mph 1023.9mb 47f 51f
9:30am 3 6 mph 1023.9mb 47f 50f
9:24am 2 3 mph 1023.9mb 47f 50f
9:18am 1 3 mph 1023.9mb 47f 49f
9:12am 2 2 mph 1023.8mb 47f 47f
9:06am 1 2 mph 1023.9mb 47f 46f
9:00am 2 2 mph 1023.9mb 47f 45f
8:36am 2 3 mph 1024.1mb 47f 44f
8:30am 2 3 mph 1024.1mb 47f 44f
8:24am 5 6 mph 1024.1mb 47f 45f
8:18am 6 6 mph 1024mb 47f 44f
8:12am 6 7 mph 1024mb 47f 44f
8:06am 7 8 mph 1024mb 47f 43f
8:00am 7 9 mph 1024mb 47f 42f
7:36am 9 10 mph 1024mb 48f 41f
7:30am 9 11 mph 1024mb 48f 41f
7:24am 9 10 mph 1024.1mb 48f 40f
7:18am 9 11 mph 1024mb 48f 41f
7:12am 9 11 mph 1024mb 48f 41f
7:06am 10 11 mph 1024mb 48f 41f
7:00am 9 10 mph 1024mb 48f 41f
6:36am 8 9 mph 1024.2mb 48f 42f
6:30am 7 10 mph 1024.3mb 47f 42f
6:24am 8 9 mph 1024.2mb 47f 42f
6:18am 8 10 mph 1024.3mb 47f 42f
6:12am 8 9 mph 1024.3mb 47f 42f
6:06am 9 11 mph 1024.4mb 47f 42f
6:00am 9 10 mph 1024.4mb 47f 41f
5:36am 8 9 mph 1024.5mb 47f 42f
5:30am 6 8 mph 1024.5mb 47f 41f
5:24am 7 10 mph 1024.5mb 47f 42f
5:18am 8 9 mph 1024.5mb 47f 42f
5:12am 8 10 mph 1024.5mb 47f 42f
5:06am 9 11 mph 1024.5mb 47f 41f
5:00am 9 11 mph 1024.5mb 47f 42f